Previsão horária em Aljaraque

Hoje, 19 Janeiro, Terça-feira

Tempo Temperatura Precipitação Vento Pressão Humidade
00:00 +7°C° 0 mm 2 m/s 768 mmHg 91%
01:00 +8°C° 0 mm 2 m/s 767 mmHg 90%
02:00 +8°C° 0 mm 3 m/s 767 mmHg 90%
03:00 +8°C° 0 mm 3 m/s 766 mmHg 90%
04:00 +8°C° 0 mm 3 m/s 766 mmHg 89%
05:00 +8°C° 0 mm 3 m/s 766 mmHg 89%
06:00 +9°C° 0 mm 3 m/s 766 mmHg 89%
07:00 +9°C° 0 mm 3 m/s 766 mmHg 87%
08:00 +9°C° 0 mm 3 m/s 766 mmHg 86%
09:00 +9°C° 0 mm 3 m/s 766 mmHg 85%
10:00 +11°C° 0 mm 4 m/s 766 mmHg 82%
11:00 +12°C° 0 mm 4 m/s 766 mmHg 79%
12:00 +13°C° 0 mm 4 m/s 766 mmHg 77%
13:00 +13°C° 0 mm 4 m/s 766 mmHg 76%
14:00 +14°C° 0 mm 4 m/s 765 mmHg 75%
15:00 +14°C° 0 mm 4 m/s 764 mmHg 75%
16:00 +14°C° 0 mm 4 m/s 764 mmHg 76%
17:00 +13°C° 0 mm 4 m/s 764 mmHg 78%
18:00 +13°C° 0 mm 4 m/s 764 mmHg 79%
19:00 +13°C° 0 mm 4 m/s 763 mmHg 80%
20:00 +12°C° 0 mm 4 m/s 763 mmHg 81%
21:00 +12°C° 0 mm 5 m/s 763 mmHg 81%
22:00 +12°C° 0 mm 5 m/s 763 mmHg 81%
23:00 +11°C° 0 mm 6 m/s 762 mmHg 80%

Amanhã, 20 Janeiro, Quarta-feira

Tempo Temperatura Precipitação Vento Pressão Humidade
00:00 +11°C° 0 mm 6 m/s 762 mmHg 80%
01:00 +12°C° 0.1 mm 7 m/s 761 mmHg 81%
02:00 +12°C° 0.1 mm 7 m/s 760 mmHg 82%
03:00 +12°C° 0.1 mm 8 m/s 759 mmHg 83%
04:00 +12°C° 0.3 mm 8 m/s 759 mmHg 84%
05:00 +12°C° 0.3 mm 9 m/s 759 mmHg 85%
06:00 +12°C° 0.3 mm 10 m/s 758 mmHg 86%
07:00 +12°C° 6.4 mm 9 m/s 758 mmHg 89%
08:00 +12°C° 6.4 mm 9 m/s 758 mmHg 93%
09:00 +12°C° 6.4 mm 9 m/s 757 mmHg 96%
10:00 +13°C° 1.1 mm 9 m/s 758 mmHg 89%
11:00 +16°C° 1.1 mm 9 m/s 758 mmHg 82%
12:00 +17°C° 1.1 mm 9 m/s 758 mmHg 74%
13:00 +17°C° 0.1 mm 9 m/s 758 mmHg 72%
14:00 +16°C° 0.1 mm 9 m/s 757 mmHg 69%
15:00 +16°C° 0.1 mm 9 m/s 757 mmHg 67%
16:00 +15°C° 0.1 mm 8 m/s 757 mmHg 70%
17:00 +14°C° 0.1 mm 7 m/s 758 mmHg 74%
18:00 +12°C° 0.1 mm 7 m/s 758 mmHg 77%
19:00 +11°C° 0 mm 6 m/s 759 mmHg 80%
20:00 +11°C° 0 mm 6 m/s 759 mmHg 83%
21:00 +10°C° 0 mm 5 m/s 760 mmHg 85%
22:00 +10°C° 0 mm 5 m/s 760 mmHg 87%
23:00 +10°C° 0 mm 5 m/s 760 mmHg 89%

Depois de amanhã, 21 Janeiro, Quinta-feira

Tempo Temperatura Precipitação Vento Pressão Humidade
00:00 +10°C° 0 mm 5 m/s 761 mmHg 91%
01:00 +10°C° 0 mm 4 m/s 761 mmHg 92%
02:00 +10°C° 0 mm 4 m/s 761 mmHg 92%
03:00 +10°C° 0 mm 4 m/s 761 mmHg 93%
04:00 +10°C° 0 mm 4 m/s 761 mmHg 93%
05:00 +10°C° 0 mm 3 m/s 762 mmHg 92%
06:00 +10°C° 0 mm 3 m/s 762 mmHg 92%
07:00 +11°C° 0 mm 3 m/s 762 mmHg 91%
08:00 +11°C° 0 mm 4 m/s 762 mmHg 90%
09:00 +12°C° 0 mm 4 m/s 763 mmHg 88%
10:00 +14°C° 0.1 mm 5 m/s 763 mmHg 85%
11:00 +15°C° 0.1 mm 7 m/s 763 mmHg 81%
12:00 +16°C° 0.1 mm 8 m/s 763 mmHg 77%
13:00 +16°C° 0.1 mm 9 m/s 763 mmHg 77%
14:00 +16°C° 0.1 mm 9 m/s 762 mmHg 76%
15:00 +16°C° 0.1 mm 9 m/s 762 mmHg 75%
16:00 +16°C° 0.1 mm 9 m/s 761 mmHg 79%
17:00 +15°C° 0.1 mm 8 m/s 761 mmHg 82%
18:00 +13°C° 0.1 mm 8 m/s 761 mmHg 86%
19:00 +15°C° 0.3 mm 8 m/s 761 mmHg 88%
20:00 +15°C° 0.3 mm 8 m/s 761 mmHg 91%
21:00 +15°C° 0.3 mm 8 m/s 762 mmHg 93%
22:00 +15°C° 0.3 mm 7 m/s 761 mmHg 94%
23:00 +14°C° 0.3 mm 7 m/s 761 mmHg 94%

22 Janeiro, Sexta-feira

Tempo Temperatura Precipitação Vento Pressão Humidade
00:00 +14°C° 0.3 mm 6 m/s 761 mmHg 95%
01:00 +14°C° 0 mm 6 m/s 761 mmHg 95%
02:00 +13°C° 0 mm 6 m/s 761 mmHg 95%
03:00 +13°C° 0 mm 6 m/s 760 mmHg 95%
04:00 +13°C° 0 mm 6 m/s 760 mmHg 95%
05:00 +13°C° 0 mm 6 m/s 760 mmHg 94%
06:00 +13°C° 0 mm 6 m/s 760 mmHg 94%
07:00 +14°C° 0.1 mm 6 m/s 760 mmHg 92%
08:00 +14°C° 0.1 mm 6 m/s 761 mmHg 89%
09:00 +14°C° 0.1 mm 6 m/s 761 mmHg 87%
10:00 +15°C° 0 mm 7 m/s 761 mmHg 80%
11:00 +15°C° 0 mm 8 m/s 762 mmHg 74%
12:00 +15°C° 0 mm 9 m/s 762 mmHg 67%
13:00 +15°C° 0 mm 9 m/s 762 mmHg 64%
14:00 +15°C° 0 mm 9 m/s 762 mmHg 62%
15:00 +15°C° 0 mm 9 m/s 762 mmHg 59%
16:00 +13°C° 0 mm 8 m/s 762 mmHg 62%
17:00 +12°C° 0 mm 7 m/s 763 mmHg 66%
18:00 +10°C° 0 mm 6 m/s 764 mmHg 70%
19:00 +10°C° 0 mm 6 m/s 764 mmHg 73%
20:00 +9°C° 0 mm 5 m/s 765 mmHg 76%
21:00 +8°C° 0 mm 4 m/s 765 mmHg 79%
22:00 +8°C° 0 mm 4 m/s 766 mmHg 81%
23:00 +8°C° 0 mm 3 m/s 766 mmHg 83%

23 Janeiro, Sábado

Tempo Temperatura Precipitação Vento Pressão Humidade
00:00 +8°C° 0 mm 3 m/s 766 mmHg 85%
01:00 +7°C° 0 mm 3 m/s 766 mmHg 86%
02:00 +7°C° 0 mm 3 m/s 766 mmHg 87%
03:00 +7°C° 0 mm 3 m/s 766 mmHg 88%
04:00 +7°C° 0 mm 3 m/s 766 mmHg 88%
05:00 +7°C° 0 mm 3 m/s 765 mmHg 89%
06:00 +7°C° 0 mm 2 m/s 765 mmHg 89%
07:00 +8°C° 0 mm 3 m/s 765 mmHg 85%
08:00 +9°C° 0 mm 3 m/s 766 mmHg 81%
09:00 +10°C° 0 mm 3 m/s 766 mmHg 77%
10:00 +12°C° 0 mm 3 m/s 766 mmHg 72%
11:00 +13°C° 0 mm 4 m/s 765 mmHg 67%
12:00 +14°C° 0 mm 4 m/s 765 mmHg 62%
13:00 +15°C° 0 mm 5 m/s 765 mmHg 63%
14:00 +15°C° 0 mm 5 m/s 764 mmHg 64%
15:00 +15°C° 0 mm 6 m/s 763 mmHg 66%
16:00 +14°C° 0 mm 6 m/s 763 mmHg 69%
17:00 +14°C° 0 mm 6 m/s 763 mmHg 73%
18:00 +13°C° 0 mm 6 m/s 763 mmHg 76%
19:00 +13°C° 0 mm 6 m/s 763 mmHg 79%
20:00 +13°C° 0 mm 6 m/s 763 mmHg 82%
21:00 +13°C° 0 mm 6 m/s 763 mmHg 85%
22:00 +12°C° 0 mm 7 m/s 763 mmHg 87%
23:00 +12°C° 0 mm 7 m/s 763 mmHg 89%

24 Janeiro, Domingo

Tempo Temperatura Precipitação Vento Pressão Humidade
00:00 +12°C° 0 mm 7 m/s 763 mmHg 91%
01:00 +14°C° 0 mm 7 m/s 763 mmHg 91%
02:00 +14°C° 0 mm 6 m/s 763 mmHg 92%
03:00 +14°C° 0 mm 6 m/s 762 mmHg 92%
04:00 +14°C° 0 mm 5 m/s 762 mmHg 93%
05:00 +14°C° 0 mm 5 m/s 762 mmHg 94%
06:00 +14°C° 0 mm 4 m/s 762 mmHg 95%
07:00 +14°C° 0 mm 4 m/s 762 mmHg 94%
08:00 +14°C° 0 mm 3 m/s 763 mmHg 93%
09:00 +16°C° 0 mm 3 m/s 763 mmHg 93%
10:00 +15°C° 0 mm 4 m/s 763 mmHg 88%
11:00 +17°C° 0 mm 4 m/s 763 mmHg 84%
12:00 +18°C° 0 mm 4 m/s 764 mmHg 80%
13:00 +19°C° 0.1 mm 4 m/s 763 mmHg 79%
14:00 +19°C° 0.1 mm 5 m/s 763 mmHg 77%
15:00 +19°C° 0.1 mm 5 m/s 762 mmHg 76%
16:00 +17°C° 0 mm 5 m/s 762 mmHg 80%
17:00 +17°C° 0 mm 4 m/s 762 mmHg 83%
18:00 +15°C° 0 mm 4 m/s 762 mmHg 86%
19:00 +14°C° 0 mm 4 m/s 762 mmHg 88%
20:00 +14°C° 0 mm 3 m/s 763 mmHg 90%
21:00 +13°C° 0 mm 3 m/s 763 mmHg 91%
22:00 +13°C° 0 mm 3 m/s 763 mmHg 91%
23:00 +14°C° 0 mm 2 m/s 763 mmHg 91%
Mostrar mais

Necessitamos do seu Consentimento

A Meteoprog e os seus Fornecedores de Serviços podem armazenar e aceder a dados pessoais como cookies, identificadores do dispositivo ou outras tecnologias semelhantes existentes no seu dispositivo e processar estes dados para personalizar conteúdos e anúncios, assim como funcionalidades nas redes sociais e análise de tráfego.

  • Armazenar e/ou aceder a informações no seu dispositivo

    Os cookies, identificadores do dispositivo ou outras informações podem ser armazenados ou acedidos no seu dispositivo, para os fins acima indicados.

  • Anúncios e conteúdos personalizados, medição de anúncios e conteúdos, dados sobre o público-alvo e desenvolvimento de produtos

    Os anúncios e os conteúdos podem ser personalizados com base num perfil. Podem ser adicionados dados adicionais para uma maior personalização dos anúncios e dos conteúdos. A eficácia dos anúncios e dos conteúdos pode ser medida. Podem ser obtidas informações sobre o público que visualizou os anúncios e os conteúdos. Estes dados podem ser usados para desenvolver ou melhorar sistemas, softwares ou a experiência do utilizador.

Ao clicar em "Eu concordo”, permitirá o uso de cookies, identificadores do dispositivo e web beacons mencionados ou outras tecnologias semelhantes. As configurações do navegador do seu dispositivo podem ser alteradas.

Para certos fins, podem ser invocados interesses legítimos ao invés de consentimento. Pode ler mais informação sobre este assunto na nossa Política de Privacidade e Cookies.